When you browse on this site, cookies collect data to enhance your experience and personalize the content and advertising you see.
Visit our Privacy Policy to learn more. By continuing to use the site, you agree to this use of cookies and data.
  • In Deutschland
  • Länderverzeichnis
  • Für 7 Tage
  • Wassertemperatur
  • Satellitenkarten
  • Wetterkarte
  • Widgets
  • user-avatar
    Anmelden

    Stündliche Wetter Annaba

    Heute, 21 Juli, Sonntag

    Zeit Temperatur Niederschläge Wind Luftdruck Luftfeuchtigkeit
    00:00 +27°C° 0 mm 1 m/S 760 mmHg 68%
    01:00 +27°C° 0 mm 1 m/S 761 mmHg 66%
    02:00 +27°C° 0 mm 1 m/S 760 mmHg 67%
    03:00 +27°C° 0 mm 1 m/S 760 mmHg 68%
    04:00 +24°C° 0 mm 0 m/S 760 mmHg 69%
    05:00 +27°C° 0 mm 1 m/S 760 mmHg 66%
    06:00 +28°C° 0 mm 1 m/S 760 mmHg 63%
    07:00 +28°C° 0 mm 1 m/S 760 mmHg 61%
    08:00 +30°C° 0 mm 2 m/S 761 mmHg 56%
    09:00 +31°C° 0 mm 3 m/S 761 mmHg 52%
    10:00 +34°C° 0 mm 3 m/S 761 mmHg 47%
    11:00 +34°C° 0 mm 4 m/S 761 mmHg 47%
    12:00 +35°C° 0 mm 5 m/S 761 mmHg 46%
    13:00 +35°C° 0 mm 5 m/S 761 mmHg 45%
    14:00 +35°C° 0 mm 5 m/S 761 mmHg 48%
    15:00 +34°C° 0 mm 6 m/S 760 mmHg 51%
    16:00 +34°C° 0 mm 6 m/S 760 mmHg 54%
    17:00 +33°C° 0 mm 5 m/S 761 mmHg 58%
    18:00 +32°C° 0 mm 4 m/S 761 mmHg 61%
    19:00 +30°C° 0 mm 3 m/S 761 mmHg 64%
    20:00 +29°C° 0 mm 3 m/S 762 mmHg 68%
    21:00 +28°C° 0 mm 2 m/S 762 mmHg 72%
    22:00 +27°C° 0 mm 2 m/S 762 mmHg 76%
    23:00 +27°C° 0 mm 2 m/S 762 mmHg 77%

    Morgen, 22 Juli, Montag

    Zeit Temperatur Niederschläge Wind Luftdruck Luftfeuchtigkeit
    00:00 +27°C° 0 mm 1 m/S 762 mmHg 77%
    01:00 +26°C° 0 mm 1 m/S 762 mmHg 78%
    02:00 +26°C° 0 mm 1 m/S 762 mmHg 78%
    03:00 +26°C° 0 mm 1 m/S 762 mmHg 78%
    04:00 +26°C° 0 mm 1 m/S 762 mmHg 78%
    05:00 +26°C° 0 mm 1 m/S 762 mmHg 75%
    06:00 +27°C° 0 mm 1 m/S 762 mmHg 72%
    07:00 +26°C° 0 mm 0 m/S 763 mmHg 69%
    08:00 +30°C° 0 mm 1 m/S 763 mmHg 61%
    09:00 +31°C° 0 mm 1 m/S 763 mmHg 53%
    10:00 +34°C° 0 mm 2 m/S 763 mmHg 46%
    11:00 +35°C° 0 mm 3 m/S 763 mmHg 43%
    12:00 +35°C° 0 mm 4 m/S 762 mmHg 40%
    13:00 +36°C° 0 mm 4 m/S 762 mmHg 37%
    14:00 +35°C° 0 mm 4 m/S 762 mmHg 39%
    15:00 +35°C° 0 mm 5 m/S 761 mmHg 40%
    16:00 +34°C° 0 mm 5 m/S 761 mmHg 42%
    17:00 +33°C° 0 mm 4 m/S 761 mmHg 46%
    18:00 +32°C° 0 mm 4 m/S 761 mmHg 50%
    19:00 +30°C° 0 mm 3 m/S 761 mmHg 53%
    20:00 +29°C° 0 mm 2 m/S 761 mmHg 58%
    21:00 +28°C° 0 mm 2 m/S 762 mmHg 62%
    22:00 +27°C° 0 mm 1 m/S 762 mmHg 67%
    23:00 +26°C° 0 mm 1 m/S 762 mmHg 67%

    übermorgen, 23 Juli, Dienstag

    Zeit Temperatur Niederschläge Wind Luftdruck Luftfeuchtigkeit
    00:00 +26°C° 0 mm 1 m/S 762 mmHg 67%
    01:00 +26°C° 0 mm 1 m/S 761 mmHg 68%
    02:00 +26°C° 0 mm 1 m/S 761 mmHg 66%
    03:00 +25°C° 0 mm 1 m/S 761 mmHg 65%
    04:00 +25°C° 0 mm 1 m/S 761 mmHg 64%
    05:00 +26°C° 0 mm 1 m/S 761 mmHg 60%
    06:00 +27°C° 0 mm 1 m/S 761 mmHg 57%
    07:00 +28°C° 0 mm 1 m/S 761 mmHg 54%
    08:00 +30°C° 0 mm 1 m/S 761 mmHg 47%
    09:00 +32°C° 0 mm 2 m/S 761 mmHg 41%
    10:00 +35°C° 0 mm 3 m/S 761 mmHg 35%
    11:00 +36°C° 0 mm 3 m/S 760 mmHg 34%
    12:00 +36°C° 0 mm 4 m/S 760 mmHg 33%
    13:00 +37°C° 0 mm 5 m/S 760 mmHg 33%
    14:00 +36°C° 0 mm 5 m/S 759 mmHg 35%
    15:00 +36°C° 0 mm 5 m/S 759 mmHg 37%
    16:00 +35°C° 0 mm 6 m/S 758 mmHg 40%
    17:00 +34°C° 0 mm 5 m/S 758 mmHg 44%
    18:00 +33°C° 0 mm 4 m/S 758 mmHg 48%
    19:00 +32°C° 0 mm 4 m/S 759 mmHg 52%
    20:00 +30°C° 0 mm 3 m/S 759 mmHg 57%
    21:00 +29°C° 0 mm 3 m/S 759 mmHg 62%
    22:00 +27°C° 0 mm 3 m/S 760 mmHg 67%
    23:00 +27°C° 0 mm 2 m/S 759 mmHg 66%

    24 Juli, Mittwoch

    Zeit Temperatur Niederschläge Wind Luftdruck Luftfeuchtigkeit
    00:00 +27°C° 0 mm 2 m/S 759 mmHg 65%
    01:00 +27°C° 0 mm 2 m/S 759 mmHg 65%
    02:00 +26°C° 0 mm 1 m/S 759 mmHg 64%
    03:00 +26°C° 0 mm 1 m/S 758 mmHg 64%
    04:00 +26°C° 0 mm 1 m/S 758 mmHg 63%
    05:00 +27°C° 0 mm 1 m/S 758 mmHg 59%
    06:00 +28°C° 0 mm 1 m/S 758 mmHg 54%
    07:00 +29°C° 0 mm 1 m/S 758 mmHg 50%
    08:00 +31°C° 0 mm 1 m/S 758 mmHg 44%
    09:00 +33°C° 0 mm 1 m/S 759 mmHg 37%
    10:00 +37°C° 0 mm 2 m/S 759 mmHg 31%
    11:00 +37°C° 0 mm 3 m/S 759 mmHg 31%
    12:00 +37°C° 0 mm 4 m/S 758 mmHg 32%
    13:00 +37°C° 0 mm 5 m/S 758 mmHg 32%
    14:00 +37°C° 0 mm 5 m/S 758 mmHg 35%
    15:00 +36°C° 0 mm 5 m/S 757 mmHg 38%
    16:00 +36°C° 0 mm 5 m/S 757 mmHg 41%
    17:00 +35°C° 0 mm 5 m/S 757 mmHg 45%
    18:00 +33°C° 0 mm 4 m/S 757 mmHg 50%
    19:00 +31°C° 0 mm 3 m/S 757 mmHg 54%
    20:00 +30°C° 0 mm 2 m/S 758 mmHg 58%
    21:00 +29°C° 0 mm 2 m/S 758 mmHg 63%
    22:00 +28°C° 0 mm 1 m/S 759 mmHg 67%
    23:00 +27°C° 0 mm 1 m/S 759 mmHg 66%

    25 Juli, Donnerstag

    Zeit Temperatur Niederschläge Wind Luftdruck Luftfeuchtigkeit
    00:00 +27°C° 0 mm 1 m/S 758 mmHg 66%
    01:00 +27°C° 0 mm 1 m/S 758 mmHg 66%
    02:00 +26°C° 0 mm 1 m/S 758 mmHg 68%
    03:00 +26°C° 0 mm 1 m/S 758 mmHg 69%
    04:00 +24°C° 0 mm 0 m/S 758 mmHg 71%
    05:00 +25°C° 0 mm 0 m/S 758 mmHg 68%
    06:00 +26°C° 0 mm 0 m/S 758 mmHg 64%
    07:00 +26°C° 0 mm 0 m/S 758 mmHg 61%
    08:00 +31°C° 0 mm 1 m/S 758 mmHg 54%
    09:00 +33°C° 0 mm 1 m/S 758 mmHg 47%
    10:00 +35°C° 0 mm 1 m/S 758 mmHg 39%
    11:00 +37°C° 0 mm 2 m/S 758 mmHg 39%
    12:00 +37°C° 0 mm 3 m/S 758 mmHg 38%
    13:00 +38°C° 0 mm 4 m/S 757 mmHg 37%
    14:00 +37°C° 0 mm 4 m/S 757 mmHg 38%
    15:00 +37°C° 0 mm 5 m/S 757 mmHg 40%
    16:00 +36°C° 0 mm 5 m/S 756 mmHg 42%
    17:00 +35°C° 0 mm 4 m/S 757 mmHg 45%
    18:00 +34°C° 0 mm 3 m/S 757 mmHg 49%
    19:00 +33°C° 0 mm 3 m/S 757 mmHg 53%
    20:00 +30°C° 0 mm 2 m/S 757 mmHg 57%
    21:00 +29°C° 0 mm 1 m/S 757 mmHg 61%
    22:00 +28°C° 0 mm 1 m/S 758 mmHg 65%
    23:00 +28°C° 0 mm 1 m/S 758 mmHg 64%

    26 Juli, Freitag

    Zeit Temperatur Niederschläge Wind Luftdruck Luftfeuchtigkeit
    00:00 +28°C° 0 mm 2 m/S 757 mmHg 64%
    01:00 +27°C° 0 mm 2 m/S 757 mmHg 64%
    02:00 +27°C° 0 mm 2 m/S 757 mmHg 66%
    03:00 +27°C° 0 mm 2 m/S 757 mmHg 68%
    04:00 +26°C° 0 mm 1 m/S 757 mmHg 70%
    05:00 +27°C° 0 mm 1 m/S 757 mmHg 67%
    06:00 +28°C° 0 mm 1 m/S 757 mmHg 65%
    07:00 +28°C° 0 mm 1 m/S 757 mmHg 62%
    08:00 +30°C° 0 mm 2 m/S 757 mmHg 55%
    09:00 +34°C° 0 mm 2 m/S 757 mmHg 47%
    10:00 +36°C° 0 mm 2 m/S 757 mmHg 40%
    11:00 +36°C° 0 mm 3 m/S 757 mmHg 39%
    12:00 +37°C° 0 mm 4 m/S 757 mmHg 39%
    13:00 +37°C° 0 mm 5 m/S 757 mmHg 38%
    14:00 +37°C° 0 mm 5 m/S 757 mmHg 41%
    15:00 +36°C° 0 mm 4 m/S 757 mmHg 44%
    16:00 +35°C° 0 mm 4 m/S 756 mmHg 46%
    17:00 +33°C° 0 mm 4 m/S 757 mmHg 55%
    18:00 +31°C° 0 mm 3 m/S 757 mmHg 63%
    19:00 +29°C° 0 mm 3 m/S 758 mmHg 71%
    20:00 +28°C° 0 mm 2 m/S 758 mmHg 77%
    21:00 +27°C° 0 mm 2 m/S 759 mmHg 83%
    22:00 +26°C° 0 mm 1 m/S 759 mmHg 88%
    23:00 +26°C° 0 mm 2 m/S 759 mmHg 89%
    Mehr zeigen